Location: Newark
(35.8833°N, 14.5000°E)
Time: 00:13:34
(UTC+00:00)

Altair - Pass Details

Date: 28 November 2019
Orbit: 1502 x 1682 km, 47.2° (Epoch: 05 December)

Event Time Altitude Azimuth Distance (km) Brightness Sun altitude
Rises 21:44:06 0° 212° (SSW) 4,744 - -69.6°
Reaches altitude 10° 21:47:20 10° 207° (SSW) 3,737 - -70.1°
Maximum altitude 21:56:16 50° 135° (SE) 1,869 - -71.3°
Drops below altitude 10° 22:04:59 10° 63° (ENE) 3,658 - -72.5°
Sets 22:08:06 0° 59° (ENE) 4,636 - -72.8°
